When you browse on this site, cookies collect data to enhance your experience and personalize the content and advertising you see.
Visit our Privacy Policy to learn more. By continuing to use the site, you agree to this use of cookies and data.
  • în România
  • Lista ţărilor
  • Pe 7 zile
  • Temperatura apei
  • Hartă satelitară
  • Meteo pe hartă
  • Widget-uri
  • user-avatar
    Intrare

    Meteo pe oră la Cobija

    Astăzi, 24 Mai, Vineri

    Timp Temperatura Precipitaţii Vânt Presiune Umiditate
    00:00 +25°C° 0.2 mm 1 m/s 740 mmHg 99%
    01:00 +24°C° 0 mm 1 m/s 740 mmHg 99%
    02:00 +24°C° 0.1 mm 1 m/s 740 mmHg 99%
    03:00 +24°C° 0.1 mm 1 m/s 740 mmHg 98%
    04:00 +24°C° 0.1 mm 2 m/s 740 mmHg 98%
    05:00 +24°C° 0.1 mm 2 m/s 740 mmHg 98%
    06:00 +24°C° 0.1 mm 2 m/s 741 mmHg 98%
    07:00 +24°C° 0.1 mm 2 m/s 741 mmHg 98%
    08:00 +23°C° 0.3 mm 2 m/s 742 mmHg 97%
    09:00 +23°C° 0.3 mm 2 m/s 742 mmHg 96%
    10:00 +23°C° 0.3 mm 2 m/s 743 mmHg 96%
    11:00 +23°C° 0.1 mm 2 m/s 742 mmHg 92%
    12:00 +24°C° 0.1 mm 1 m/s 741 mmHg 88%
    13:00 +25°C° 0.1 mm 1 m/s 741 mmHg 84%
    14:00 +25°C° 0 mm 1 m/s 740 mmHg 81%
    15:00 +26°C° 0 mm 1 m/s 739 mmHg 79%
    16:00 +26°C° 0 mm 1 m/s 739 mmHg 76%
    17:00 +25°C° 0 mm 1 m/s 739 mmHg 81%
    18:00 +24°C° 0 mm 1 m/s 739 mmHg 86%
    19:00 +23°C° 0 mm 1 m/s 739 mmHg 91%
    20:00 +23°C° 0 mm 1 m/s 740 mmHg 89%
    21:00 +23°C° 0 mm 1 m/s 740 mmHg 87%
    22:00 +23°C° 0 mm 1 m/s 741 mmHg 86%
    23:00 +22°C° 0 mm 1 m/s 741 mmHg 87%

    Mâine, 25 Mai, Sâmbătă

    Timp Temperatura Precipitaţii Vânt Presiune Umiditate
    00:00 +22°C° 0 mm 1 m/s 741 mmHg 88%
    01:00 +21°C° 0 mm 1 m/s 740 mmHg 89%
    02:00 +21°C° 0 mm 1 m/s 740 mmHg 90%
    03:00 +20°C° 0 mm 1 m/s 740 mmHg 91%
    04:00 +20°C° 0 mm 1 m/s 740 mmHg 92%
    05:00 +20°C° 0 mm 1 m/s 740 mmHg 89%
    06:00 +21°C° 0 mm 1 m/s 741 mmHg 86%
    07:00 +21°C° 0 mm 1 m/s 741 mmHg 83%
    08:00 +23°C° 0 mm 1 m/s 741 mmHg 75%
    09:00 +26°C° 0 mm 1 m/s 741 mmHg 67%
    10:00 +28°C° 0 mm 1 m/s 742 mmHg 58%
    11:00 +30°C° 0 mm 1 m/s 741 mmHg 55%
    12:00 +31°C° 0 mm 1 m/s 740 mmHg 52%
    13:00 +31°C° 0 mm 0 m/s 739 mmHg 49%
    14:00 +30°C° 0 mm 0 m/s 738 mmHg 53%
    15:00 +30°C° 0 mm 0 m/s 738 mmHg 57%
    16:00 +29°C° 0 mm 0 m/s 737 mmHg 61%
    17:00 +27°C° 0 mm 0 m/s 737 mmHg 67%
    18:00 +25°C° 0 mm 0 m/s 737 mmHg 72%
    19:00 +23°C° 0 mm 0 m/s 737 mmHg 77%
    20:00 +23°C° 0 mm 0 m/s 738 mmHg 79%
    21:00 +22°C° 0 mm 0 m/s 738 mmHg 80%
    22:00 +22°C° 0 mm 0 m/s 739 mmHg 82%
    23:00 +22°C° 0 mm 0 m/s 739 mmHg 83%

    Poimâine, 26 Mai, Duminică

    Timp Temperatura Precipitaţii Vânt Presiune Umiditate
    00:00 +21°C° 0 mm 0 m/s 738 mmHg 84%
    01:00 +21°C° 0 mm 0 m/s 738 mmHg 85%
    02:00 +21°C° 0 mm 0 m/s 738 mmHg 86%
    03:00 +21°C° 0 mm 0 m/s 738 mmHg 87%
    04:00 +21°C° 0 mm 0 m/s 737 mmHg 88%
    05:00 +21°C° 0 mm 0 m/s 738 mmHg 86%
    06:00 +22°C° 0 mm 0 m/s 738 mmHg 84%
    07:00 +23°C° 0 mm 0 m/s 739 mmHg 82%
    08:00 +25°C° 0 mm 0 m/s 739 mmHg 72%
    09:00 +28°C° 0 mm 0 m/s 740 mmHg 62%
    10:00 +31°C° 0 mm 0 m/s 740 mmHg 52%
    11:00 +34°C° 0 mm 1 m/s 739 mmHg 49%
    12:00 +34°C° 0 mm 1 m/s 738 mmHg 46%
    13:00 +35°C° 0 mm 1 m/s 737 mmHg 43%
    14:00 +35°C° 0 mm 1 m/s 737 mmHg 47%
    15:00 +34°C° 0 mm 1 m/s 736 mmHg 51%
    16:00 +33°C° 0 mm 1 m/s 735 mmHg 55%
    17:00 +31°C° 0 mm 1 m/s 736 mmHg 61%
    18:00 +29°C° 0 mm 1 m/s 736 mmHg 67%
    19:00 +27°C° 0 mm 1 m/s 736 mmHg 74%
    20:00 +27°C° 0 mm 1 m/s 737 mmHg 76%
    21:00 +24°C° 0 mm 0 m/s 737 mmHg 78%
    22:00 +24°C° 0 mm 0 m/s 737 mmHg 80%
    23:00 +24°C° 0 mm 0 m/s 737 mmHg 81%

    27 Mai, Luni

    Timp Temperatura Precipitaţii Vânt Presiune Umiditate
    00:00 +23°C° 0 mm 0 m/s 737 mmHg 83%
    01:00 +23°C° 0 mm 0 m/s 737 mmHg 84%
    02:00 +23°C° 0 mm 0 m/s 737 mmHg 85%
    03:00 +23°C° 0 mm 0 m/s 737 mmHg 86%
    04:00 +22°C° 0 mm 0 m/s 737 mmHg 87%
    05:00 +23°C° 0 mm 0 m/s 737 mmHg 86%
    06:00 +23°C° 0 mm 0 m/s 738 mmHg 85%
    07:00 +26°C° 0 mm 1 m/s 738 mmHg 84%
    08:00 +28°C° 0 mm 1 m/s 739 mmHg 76%
    09:00 +30°C° 0 mm 1 m/s 739 mmHg 68%
    10:00 +32°C° 0 mm 1 m/s 739 mmHg 60%
    11:00 +33°C° 0 mm 1 m/s 739 mmHg 56%
    12:00 +34°C° 0 mm 1 m/s 738 mmHg 51%
    13:00 +36°C° 0 mm 1 m/s 737 mmHg 46%
    14:00 +34°C° 0.2 mm 1 m/s 736 mmHg 56%
    15:00 +32°C° 0.2 mm 1 m/s 736 mmHg 67%
    16:00 +30°C° 0.2 mm 2 m/s 735 mmHg 77%
    17:00 +29°C° 0 mm 1 m/s 735 mmHg 81%
    18:00 +28°C° 0 mm 1 m/s 736 mmHg 85%
    19:00 +26°C° 0 mm 1 m/s 736 mmHg 89%
    20:00 +24°C° 0 mm 0 m/s 737 mmHg 89%
    21:00 +24°C° 0 mm 0 m/s 737 mmHg 88%
    22:00 +24°C° 0 mm 0 m/s 738 mmHg 87%
    23:00 +24°C° 0 mm 0 m/s 737 mmHg 87%

    28 Mai, Marţi

    Timp Temperatura Precipitaţii Vânt Presiune Umiditate
    00:00 +23°C° 0 mm 0 m/s 737 mmHg 88%
    01:00 +23°C° 0 mm 0 m/s 737 mmHg 88%
    02:00 +23°C° 0 mm 0 m/s 737 mmHg 89%
    03:00 +23°C° 0 mm 0 m/s 737 mmHg 89%
    04:00 +23°C° 0 mm 0 m/s 737 mmHg 90%
    05:00 +23°C° 0 mm 0 m/s 738 mmHg 88%
    06:00 +24°C° 0 mm 0 m/s 738 mmHg 87%
    07:00 +24°C° 0 mm 0 m/s 739 mmHg 85%
    08:00 +26°C° 0.5 mm 0 m/s 739 mmHg 81%
    09:00 +30°C° 0.5 mm 1 m/s 739 mmHg 77%
    10:00 +31°C° 0.5 mm 1 m/s 739 mmHg 73%
    11:00 +33°C° 0.2 mm 1 m/s 738 mmHg 64%
    12:00 +34°C° 0.2 mm 1 m/s 738 mmHg 56%
    13:00 +35°C° 0.2 mm 1 m/s 737 mmHg 47%
    14:00 +34°C° 0 mm 1 m/s 736 mmHg 53%
    15:00 +33°C° 0 mm 1 m/s 736 mmHg 58%
    16:00 +30°C° 0 mm 0 m/s 735 mmHg 64%
    17:00 +29°C° 0 mm 0 m/s 736 mmHg 68%
    18:00 +28°C° 0 mm 0 m/s 736 mmHg 72%
    19:00 +26°C° 0 mm 0 m/s 737 mmHg 76%
    20:00 +26°C° 0 mm 0 m/s 737 mmHg 78%
    21:00 +25°C° 0 mm 0 m/s 737 mmHg 80%
    22:00 +24°C° 0 mm 0 m/s 738 mmHg 83%
    23:00 +24°C° 0 mm 0 m/s 738 mmHg 84%

    29 Mai, Miercuri

    Timp Temperatura Precipitaţii Vânt Presiune Umiditate
    00:00 +24°C° 0 mm 0 m/s 737 mmHg 85%
    01:00 +24°C° 0 mm 0 m/s 737 mmHg 86%
    02:00 +23°C° 0 mm 0 m/s 737 mmHg 86%
    03:00 +23°C° 0 mm 0 m/s 737 mmHg 87%
    04:00 +23°C° 0 mm 0 m/s 737 mmHg 88%
    05:00 +24°C° 0 mm 0 m/s 738 mmHg 86%
    06:00 +24°C° 0 mm 0 m/s 739 mmHg 84%
    07:00 +25°C° 0 mm 0 m/s 739 mmHg 83%
    08:00 +27°C° 0 mm 0 m/s 739 mmHg 73%
    09:00 +30°C° 0 mm 0 m/s 739 mmHg 63%
    10:00 +33°C° 0 mm 0 m/s 739 mmHg 53%
    11:00 +34°C° 0 mm 0 m/s 738 mmHg 49%
    12:00 +34°C° 0 mm 0 m/s 737 mmHg 45%
    13:00 +35°C° 0 mm 0 m/s 736 mmHg 41%
    14:00 +34°C° 0 mm 0 m/s 736 mmHg 45%
    15:00 +33°C° 0 mm 0 m/s 735 mmHg 50%
    16:00 +32°C° 0 mm 0 m/s 735 mmHg 54%
    17:00 +30°C° 0 mm 0 m/s 735 mmHg 59%
    18:00 +28°C° 0 mm 0 m/s 736 mmHg 63%
    19:00 +26°C° 0 mm 0 m/s 736 mmHg 68%
    20:00 +26°C° 0 mm 0 m/s 737 mmHg 70%
    21:00 +25°C° 0 mm 0 m/s 737 mmHg 72%
    22:00 +25°C° 0 mm 0 m/s 737 mmHg 74%
    23:00 +25°C° 0 mm 0 m/s 737 mmHg 76%
    Arată mai mult